Hourly Data Report for November 22, 2016

All times are specified in Local Standard Time (LST). Add 1 hour to adjust for Daylight Saving Time where and when it is observed.

VICTORIA UNIVERSITY CS
BRITISH COLUMBIA

48°27'25.200" N
123°18'16.600" W
60.10 m
1018598
71783
WYJ

Download Data

Hourly Data (November 2016)
Hourly Data Report for November 22, 2016
TIME Temp Definition
°C
Dew Point Definition
°C
Rel Hum Definition
%
Wind Dir Definition
10's deg

Wind Spd Definition
km/h
Visibility Definition
km
Stn Press Definition
kPa
Hmdx Definition


Wind Chill Definition


Weather Definition


00:00 7.8 7.2 96 10 2   100.82     LegendNANA
01:00 8.0 6.6 91 12 2   100.76     LegendNANA
02:00 8.4 6.8 90 11 3   100.70     LegendNANA
03:00 8.3 6.7 89 14 4   100.60     LegendNANA
04:00 8.9 6.6 86 12 7   100.47     LegendNANA
05:00 9.1 6.8 86 13 8   100.41     LegendNANA
06:00 9.2 6.6 83 15 14   100.39     LegendNANA
07:00 8.9 6.7 86 14 10   100.40     LegendNANA
08:00 8.7 7.0 89 15 13   100.38     LegendNANA
09:00 8.8 7.0 89 15 13   100.37     LegendNANA
10:00 8.7 6.8 88 15 10   100.43     LegendNANA
11:00 8.8 7.3 90 13 4   100.42     LegendNANA
12:00 8.8 7.6 92 11 3   100.34     LegendNANA
13:00 8.6 7.1 90 12 4   100.27     LegendNANA
14:00 9.1 7.2 88 12 3   100.16     LegendNANA
15:00 9.1 7.4 89 16 7   100.08     LegendNANA
16:00 9.3 7.0 86 18 7   100.05     LegendNANA
17:00 9.1 6.4 83 15 7   99.97     LegendNANA
18:00 8.5 6.7 88 29 1   99.97     LegendNANA
19:00 8.2 6.7 90 16 1   99.95     LegendNANA
20:00 9.0 7.6 91 17 8   100.01     LegendNANA
21:00 6.7 5.6 93 26 12   100.06     LegendNANA
22:00 6.4 5.5 94 25 5   100.09     LegendNANA
23:00 6.8 5.6 92 25 5   100.15     LegendNANA

Notes on Data Quality.

Legend

  • E = Estimated
  • M = Missing
  • NA = Not Available
Date modified: